This is the latest recevied weather packets stored in our database for station/object N0HOT. If no packets are shown the sender has not sent any weather packets the latest 1 day(s).
| Time | Temp. | Humidity | Pressure | Rain* | Wind** | Luminosity | Snow |
|---|---|---|---|---|---|---|---|
| 1777991835 | 10° C | 32% | 1011.1 hPa | 0 mm | 0.89 m/s, 194° | 482 W/m² | - |
| 1777991532 | 9.44° C | 34% | 1011.1 hPa | 0 mm | 1.34 m/s, 171° | 402 W/m² | - |
| 1777991229 | 8.89° C | 35% | 1011.1 hPa | 0 mm | 0.89 m/s, 175° | 447 W/m² | - |
| 1777990926 | 8.89° C | 36% | 1011.1 hPa | 0 mm | 1.79 m/s, 258° | 361 W/m² | - |
| 1777990624 | 8.89° C | 40% | 1011.5 hPa | 0 mm | 0.89 m/s, 239° | 299 W/m² | - |
| 1777990321 | 8.89° C | 39% | 1011.5 hPa | 0 mm | 1.79 m/s, 180° | 161 W/m² | - |
| 1777990017 | 8.89° C | 41% | 1011.1 hPa | 0 mm | 1.79 m/s, 190° | 65 W/m² | - |
| 1777989714 | 8.89° C | 40% | 1011.1 hPa | 0 mm | 1.79 m/s, 188° | 109 W/m² | - |
| 1777989410 | 8.89° C | 41% | 1011.5 hPa | 0 mm | 2.24 m/s, 216° | 89 W/m² | - |
| 1777989107 | 8.89° C | 40% | 1011.5 hPa | 0 mm | 1.79 m/s, 248° | 49 W/m² | - |
| 1777988802 | 8.89° C | 39% | 1011.5 hPa | 0 mm | 1.34 m/s, 232° | 53 W/m² | - |
| 1777988500 | 8.89° C | 40% | 1011.5 hPa | 0 mm | 1.79 m/s, 201° | 161 W/m² | - |
| 1777988197 | 8.33° C | 40% | 1011.8 hPa | 0 mm | 0.89 m/s, 192° | 217 W/m² | - |
| 1777987893 | 8.33° C | 42% | 1011.5 hPa | 0 mm | 0.89 m/s, 259° | 263 W/m² | - |
| 1777987589 | 7.78° C | 41% | 1011.5 hPa | 0 mm | 1.34 m/s, 207° | 87 W/m² | - |
| 1777987287 | 7.78° C | 44% | 1011.8 hPa | 0 mm | 0.45 m/s, 203° | 235 W/m² | - |
| 1777986984 | 7.22° C | 45% | 1011.8 hPa | 0 mm | 1.79 m/s, 178° | 81 W/m² | - |
| 1777986681 | 6.67° C | 45% | 1011.8 hPa | 0 mm | 0.45 m/s, 196° | 103 W/m² | - |
| 1777986380 | 6.67° C | 45% | 1011.5 hPa | 0 mm | 0.45 m/s, 189° | 39 W/m² | - |
| 1777986078 | 6.11° C | 47% | 1011.8 hPa | 0 mm | 1.34 m/s, 195° | 115 W/m² | - |
| 1777985774 | 6.11° C | 49% | 1011.5 hPa | 0 mm | 0.89 m/s, 186° | 60 W/m² | - |
| 1777985471 | 5.56° C | 49% | 1011.5 hPa | 0 mm | 0.89 m/s, 183° | 35 W/m² | - |
| 1777985167 | 5.56° C | 50% | 1011.5 hPa | 0 mm | 0 m/s | 40 W/m² | - |
| 1777984863 | 5° C | 52% | 1011.5 hPa | 0 mm | 0.89 m/s, 190° | 39 W/m² | - |
| 1777984560 | 5° C | 52% | 1011.1 hPa | 0 mm | 0.45 m/s, 226° | 39 W/m² | - |
* Rain latest hour (hover to see other rain measurements)
** Current wind speed in m/s (hover to see current wind gust speed)